Location: Newark
(35.8833°N, 14.5000°E)
Time: 21:10:00
(UTC+00:00)

BEESAT - Pass Details

Date: 17 November 2019
Orbit: 700 x 709 km, 98.6° (Epoch: 11 December)

Event Time Altitude Azimuth Distance (km) Brightness Sun altitude
Rises 17:32:07 0° 356° (N) 3,094 ? -19.9°
Reaches altitude 10° 17:34:50 10° 341° (NNW) 2,172 ? -20.5°
Maximum altitude 17:38:20 21° 293° (WNW) 1,564 ? -21.2°
Drops below altitude 10° 17:41:49 10° 245° (WSW) 2,166 ? -21.9°
Sets 17:44:32 0° 230° (SW) 3,081 ? -22.4°
